When you browse on this site, cookies collect data to enhance your experience and personalize the content and advertising you see.
Visit our Privacy Policy to learn more. By continuing to use the site, you agree to this use of cookies and data.
  • In Austria
  • List of Countries
  • For 7 days
  • Water Temperature
  • Weather Map
  • News
  • Weather Widgets
  • user-avatar
    Login

    Hourly Weather Dobrich

    Today, 3 June, Wednesday

    Time Temperature Precipitation Wind Pressure Humidity
    00:00 +10°C° 0 mm 1 mps 733 mmHg 93%
    01:00 +10°C° 0 mm 1 mps 733 mmHg 94%
    02:00 +8°C° 0 mm 2 mps 733 mmHg 94%
    03:00 +8°C° 0 mm 2 mps 733 mmHg 95%
    04:00 +7°C° 0 mm 2 mps 733 mmHg 95%
    05:00 +7°C° 0 mm 2 mps 733 mmHg 95%
    06:00 +9°C° 0 mm 2 mps 733 mmHg 87%
    07:00 +11°C° 0 mm 3 mps 733 mmHg 79%
    08:00 +14°C° 0 mm 2 mps 734 mmHg 70%
    09:00 +15°C° 0 mm 2 mps 734 mmHg 63%
    10:00 +16°C° 0 mm 2 mps 734 mmHg 56%
    11:00 +18°C° 0 mm 2 mps 734 mmHg 49%
    12:00 +18°C° 0 mm 2 mps 734 mmHg 48%
    13:00 +19°C° 0 mm 2 mps 734 mmHg 47%
    14:00 +19°C° 0 mm 3 mps 734 mmHg 46%
    15:00 +19°C° 0 mm 3 mps 733 mmHg 49%
    16:00 +19°C° 0 mm 3 mps 733 mmHg 53%
    17:00 +19°C° 0 mm 3 mps 733 mmHg 56%
    18:00 +17°C° 0.1 mm 3 mps 733 mmHg 64%
    19:00 +14°C° 0.1 mm 3 mps 733 mmHg 73%
    20:00 +13°C° 0.1 mm 4 mps 733 mmHg 82%
    21:00 +12°C° 0 mm 3 mps 733 mmHg 84%
    22:00 +11°C° 0 mm 3 mps 733 mmHg 86%
    23:00 +11°C° 0 mm 3 mps 733 mmHg 87%

    Tomorrow, 4 June, Thursday

    Time Temperature Precipitation Wind Pressure Humidity
    00:00 +11°C° 0 mm 3 mps 733 mmHg 88%
    01:00 +11°C° 0 mm 3 mps 733 mmHg 88%
    02:00 +10°C° 0 mm 3 mps 733 mmHg 89%
    03:00 +10°C° 0 mm 2 mps 733 mmHg 88%
    04:00 +10°C° 0 mm 2 mps 733 mmHg 88%
    05:00 +10°C° 0 mm 2 mps 733 mmHg 87%
    06:00 +13°C° 0 mm 2 mps 733 mmHg 80%
    07:00 +15°C° 0 mm 2 mps 733 mmHg 73%
    08:00 +18°C° 0 mm 2 mps 733 mmHg 66%
    09:00 +19°C° 0 mm 3 mps 734 mmHg 61%
    10:00 +20°C° 0 mm 4 mps 734 mmHg 56%
    11:00 +22°C° 0 mm 4 mps 734 mmHg 51%
    12:00 +22°C° 0.1 mm 4 mps 734 mmHg 51%
    13:00 +23°C° 0.1 mm 4 mps 734 mmHg 52%
    14:00 +23°C° 0.1 mm 5 mps 734 mmHg 52%
    15:00 +23°C° 0 mm 4 mps 734 mmHg 53%
    16:00 +23°C° 0 mm 4 mps 734 mmHg 55%
    17:00 +23°C° 0 mm 4 mps 734 mmHg 56%
    18:00 +22°C° 0.1 mm 4 mps 734 mmHg 63%
    19:00 +20°C° 0.1 mm 3 mps 734 mmHg 70%
    20:00 +18°C° 0.1 mm 3 mps 734 mmHg 76%
    21:00 +17°C° 0 mm 3 mps 734 mmHg 78%
    22:00 +17°C° 0 mm 3 mps 734 mmHg 79%
    23:00 +15°C° 0 mm 4 mps 735 mmHg 80%

    Day after tomorrow, 5 June, Friday

    Time Temperature Precipitation Wind Pressure Humidity
    00:00 +16°C° 0 mm 3 mps 735 mmHg 81%
    01:00 +14°C° 0 mm 3 mps 734 mmHg 82%
    02:00 +14°C° 0 mm 3 mps 734 mmHg 83%
    03:00 +14°C° 0 mm 4 mps 734 mmHg 83%
    04:00 +14°C° 0 mm 4 mps 734 mmHg 84%
    05:00 +14°C° 0 mm 4 mps 734 mmHg 84%
    06:00 +15°C° 0 mm 4 mps 735 mmHg 80%
    07:00 +17°C° 0 mm 5 mps 735 mmHg 76%
    08:00 +19°C° 0 mm 6 mps 735 mmHg 72%
    09:00 +21°C° 0 mm 6 mps 735 mmHg 69%
    10:00 +22°C° 0 mm 7 mps 735 mmHg 65%
    11:00 +24°C° 0 mm 7 mps 735 mmHg 62%
    12:00 +26°C° 0 mm 7 mps 735 mmHg 60%
    13:00 +26°C° 0 mm 8 mps 735 mmHg 57%
    14:00 +27°C° 0 mm 8 mps 735 mmHg 55%
    15:00 +26°C° 0 mm 7 mps 734 mmHg 56%
    16:00 +26°C° 0 mm 7 mps 734 mmHg 57%
    17:00 +24°C° 0 mm 7 mps 734 mmHg 59%
    18:00 +23°C° 0 mm 6 mps 734 mmHg 61%
    19:00 +21°C° 0 mm 6 mps 734 mmHg 64%
    20:00 +19°C° 0 mm 5 mps 734 mmHg 67%
    21:00 +19°C° 0 mm 6 mps 734 mmHg 65%
    22:00 +17°C° 0 mm 6 mps 734 mmHg 64%
    23:00 +16°C° 0 mm 6 mps 735 mmHg 63%

    6 June, Saturday

    Time Temperature Precipitation Wind Pressure Humidity
    00:00 +16°C° 0 mm 6 mps 734 mmHg 63%
    01:00 +16°C° 0 mm 6 mps 734 mmHg 63%
    02:00 +16°C° 0 mm 6 mps 734 mmHg 63%
    03:00 +15°C° 0 mm 6 mps 734 mmHg 66%
    04:00 +15°C° 0 mm 5 mps 734 mmHg 69%
    05:00 +14°C° 0 mm 5 mps 734 mmHg 72%
    06:00 +16°C° 0 mm 5 mps 735 mmHg 70%
    07:00 +17°C° 0 mm 5 mps 735 mmHg 69%
    08:00 +20°C° 0 mm 5 mps 736 mmHg 67%
    09:00 +21°C° 0 mm 4 mps 736 mmHg 63%
    10:00 +23°C° 0 mm 4 mps 736 mmHg 60%
    11:00 +26°C° 0 mm 3 mps 736 mmHg 56%
    12:00 +26°C° 0 mm 4 mps 736 mmHg 53%
    13:00 +27°C° 0 mm 4 mps 736 mmHg 49%
    14:00 +28°C° 0 mm 4 mps 736 mmHg 46%
    15:00 +27°C° 0 mm 4 mps 736 mmHg 48%
    16:00 +26°C° 0 mm 4 mps 736 mmHg 51%
    17:00 +26°C° 0 mm 3 mps 736 mmHg 53%
    18:00 +24°C° 0.1 mm 3 mps 736 mmHg 58%
    19:00 +21°C° 0.1 mm 2 mps 736 mmHg 62%
    20:00 +19°C° 0.1 mm 2 mps 736 mmHg 67%
    21:00 +19°C° 0 mm 2 mps 736 mmHg 67%
    22:00 +18°C° 0 mm 2 mps 736 mmHg 68%
    23:00 +18°C° 0 mm 2 mps 736 mmHg 68%

    7 June, Sunday

    Time Temperature Precipitation Wind Pressure Humidity
    00:00 +17°C° 0 mm 2 mps 736 mmHg 68%
    01:00 +16°C° 0 mm 2 mps 736 mmHg 68%
    02:00 +16°C° 0 mm 1 mps 735 mmHg 68%
    03:00 +16°C° 0 mm 1 mps 735 mmHg 67%
    04:00 +16°C° 0 mm 1 mps 735 mmHg 67%
    05:00 +16°C° 0 mm 1 mps 735 mmHg 67%
    06:00 +19°C° 0 mm 1 mps 735 mmHg 62%
    07:00 +21°C° 0 mm 1 mps 736 mmHg 58%
    08:00 +23°C° 0 mm 1 mps 736 mmHg 54%
    09:00 +24°C° 0 mm 1 mps 736 mmHg 51%
    10:00 +26°C° 0 mm 1 mps 736 mmHg 48%
    11:00 +27°C° 0 mm 1 mps 736 mmHg 45%
    12:00 +27°C° 0 mm 2 mps 736 mmHg 45%
    13:00 +28°C° 0 mm 2 mps 736 mmHg 45%
    14:00 +28°C° 0 mm 3 mps 735 mmHg 45%
    15:00 +27°C° 0 mm 3 mps 735 mmHg 48%
    16:00 +27°C° 0 mm 3 mps 735 mmHg 51%
    17:00 +27°C° 0 mm 3 mps 735 mmHg 54%
    18:00 +25°C° 0 mm 3 mps 735 mmHg 61%
    19:00 +23°C° 0 mm 2 mps 735 mmHg 68%
    20:00 +20°C° 0 mm 2 mps 735 mmHg 75%
    21:00 +19°C° 0 mm 2 mps 735 mmHg 76%
    22:00 +19°C° 0 mm 2 mps 735 mmHg 78%
    23:00 +18°C° 0 mm 2 mps 735 mmHg 79%

    8 June, Monday

    Time Temperature Precipitation Wind Pressure Humidity
    00:00 +19°C° 0 mm 1 mps 735 mmHg 79%
    01:00 +19°C° 0 mm 1 mps 735 mmHg 80%
    02:00 +19°C° 0 mm 1 mps 735 mmHg 81%
    03:00 +19°C° 0 mm 1 mps 735 mmHg 81%
    04:00 +17°C° 0 mm 0 mps 735 mmHg 81%
    05:00 +17°C° 0 mm 0 mps 735 mmHg 81%
    06:00 +19°C° 0 mm 0 mps 735 mmHg 74%
    07:00 +21°C° 0 mm 0 mps 735 mmHg 68%
    08:00 +23°C° 0 mm 0 mps 736 mmHg 62%
    09:00 +26°C° 0 mm 1 mps 736 mmHg 58%
    10:00 +27°C° 0 mm 1 mps 736 mmHg 54%
    11:00 +28°C° 0 mm 2 mps 736 mmHg 50%
    12:00 +28°C° 0 mm 2 mps 736 mmHg 51%
    13:00 +28°C° 0 mm 3 mps 735 mmHg 51%
    14:00 +28°C° 0 mm 3 mps 735 mmHg 52%
    15:00 +27°C° 0.1 mm 3 mps 735 mmHg 55%
    16:00 +26°C° 0.1 mm 3 mps 735 mmHg 59%
    17:00 +25°C° 0.1 mm 3 mps 734 mmHg 62%
    18:00 +24°C° 0 mm 3 mps 734 mmHg 67%
    19:00 +21°C° 0 mm 2 mps 734 mmHg 73%
    20:00 +19°C° 0 mm 2 mps 734 mmHg 78%
    21:00 +18°C° 0 mm 2 mps 734 mmHg 78%
    22:00 +19°C° 0 mm 1 mps 735 mmHg 77%
    23:00 +18°C° 0 mm 1 mps 735 mmHg 77%
    Show more